This is the latest recevied weather packets stored in our database for station/object AD8PA-13. If no packets are shown the sender has not sent any weather packets the latest 10 day(s).
| Time | Temp. | Humidity | Pressure | Rain* | Wind** | Luminosity | Snow |
|---|---|---|---|---|---|---|---|
| 1777356552 | 15.56° C | 96% | 1006.9 hPa | 1.78 mm | - | - | - |
| 1777355648 | 15.56° C | 96% | 1007.6 hPa | 1.27 mm | - | - | - |
| 1777354748 | 15.56° C | 95% | 1007.8 hPa | 1.27 mm | - | - | - |
| 1777353843 | 15.56° C | 94% | 1008.2 hPa | 0 mm | - | - | - |
| 1777352942 | 15.56° C | 93% | 1009.1 hPa | 0 mm | - | - | - |
| 1777352041 | 15.56° C | 92% | 1009.5 hPa | 0 mm | - | - | - |
| 1777351140 | 16.11° C | 90% | 1009.4 hPa | 0 mm | - | - | - |
| 1777350237 | 16.67° C | 87% | 1009.7 hPa | 1.78 mm | - | - | - |
| 1777349334 | 17.22° C | 81% | 1010.1 hPa | 0 mm | - | - | - |
| 1777348432 | 17.22° C | 80% | 1009.8 hPa | 0 mm | - | - | - |
| 1777347531 | 17.22° C | 79% | 1009.5 hPa | 0 mm | - | - | - |
| 1777346631 | 17.22° C | 80% | 1009.6 hPa | 0 mm | - | - | - |
| 1777345727 | 16.67° C | 79% | 1009.5 hPa | 0 mm | - | - | - |
| 1777344823 | 16.67° C | 78% | 1009.9 hPa | 0 mm | - | - | - |
| 1777343920 | 16.67° C | 75% | 1009.6 hPa | 0 mm | - | - | - |
| 1777343018 | 16.11° C | 73% | 1009.7 hPa | 0 mm | - | - | - |
| 1777342115 | 16.67° C | 72% | 1009.7 hPa | 0 mm | - | - | - |
| 1777341210 | 16.11° C | 70% | 1009.6 hPa | 0 mm | - | - | - |
| 1777340308 | 16.11° C | 69% | 1009.9 hPa | 0 mm | - | - | - |
| 1777339406 | 16.67° C | 68% | 1009.9 hPa | 0 mm | - | - | - |
| 1777338503 | 16.67° C | 67% | 1010.1 hPa | 0 mm | - | - | - |
| 1777337600 | 16.67° C | 66% | 1010.3 hPa | 0 mm | - | - | - |
| 1777336698 | 16.67° C | 64% | 1010.4 hPa | 0 mm | - | - | - |
| 1777335796 | 16.67° C | 64% | 1011.2 hPa | 0 mm | - | - | - |
| 1777334894 | 17.22° C | 60% | 1010.6 hPa | 0 mm | - | - | - |
* Rain latest hour (hover to see other rain measurements)
** Current wind speed in m/s (hover to see current wind gust speed)